EW8411 Weather Reports


time (UTC)temp
C
wind
direction
speed
KPH
gust
KPH
rain 1hr
cm
rain 24hr
cm
rain mn
cm
humidity
%
barometer
mb
20260507095804 11 0 1.6 3.2 0.00 0.00 0.00 90 1015.1
20260507095758 11 0 1.6 3.2 0.00 0.00 0.00 90 1015.2
20260507095417 11 0 1.6 3.2 0.00 0.00 0.00 89 1015.1
20260507094259 11 0 0.0 3.2 0.00 0.00 0.00 89 1015.1
20260507093300 11 0 1.6 4.8 0.00 0.00 0.00 89 1015.2
20260507092758 11 0 1.6 4.8 0.00 0.00 0.00 89 1015.2
20260507092259 11 0 1.6 4.8 0.00 0.00 0.00 89 1015.2
20260507091758 12 0 1.6 3.2 0.00 0.00 0.00 89 1015.3
20260507091255 12 0 1.6 3.2 0.00 0.00 0.00 89 1015.2
20260507090757 12 0 1.6 4.8 0.00 0.00 0.00 89 1015.2
20260507090300 12 0 1.6 4.8 0.00 0.00 0.00 88 1015.3
20260507090254 12 0 1.6 4.8 0.00 0.00 0.00 89 1015.3
20260507085253 12 0 1.6 4.8 0.00 0.00 0.00 88 1015.2
20260507084755 12 0 1.6 3.2 0.00 0.00 0.00 88 1015.3
20260507084254 12 0 1.6 3.2 0.00 0.00 0.00 89 1015.4
20260507083754 12 0 1.6 4.8 0.00 0.00 0.00 89 1015.4
20260507083254 12 0 1.6 4.8 0.00 0.00 0.00 89 1015.4
20260507082755 12 0 3.2 4.8 0.00 0.00 0.00 89 1015.5
20260507082252 12 0 3.2 4.8 0.00 0.00 0.00 89 1015.6
20260507081751 12 0 1.6 4.8 0.00 0.00 0.00 89 1015.5
20260507081257 12 0 1.6 4.8 0.00 0.00 0.00 89 1015.6
20260507081251 12 0 1.6 4.8 0.00 0.00 0.00 89 1015.5
20260507080251 12 0 1.6 4.8 0.00 0.00 0.00 89 1015.5
20260507075751 12 0 1.6 4.8 0.00 0.00 0.00 89 1015.5
20260507075250 12 0 1.6 3.2 0.00 0.00 0.00 88 1015.5
20260507074748 12 0 0.0 3.2 0.00 0.00 0.00 88 1015.5
20260507074249 12 0 0.0 3.2 0.00 0.00 0.00 88 1015.4
20260507073748 12 0 1.6 3.2 0.00 0.00 0.00 87 1015.5
20260507073253 13 0 0.0 3.2 0.00 0.00 0.00 87 1015.5
20260507073250 13 0 1.6 3.2 0.00 0.00 0.00 87 1015.5
20260507072250 13 0 0.0 1.6 0.00 0.00 0.00 87 1015.5
20260507071750 13 0 0.0 1.6 0.00 0.00 0.00 86 1015.5
20260507071249 13 0 0.0 3.2 0.00 0.00 0.00 86 1015.5
20260507070753 13 0 1.6 3.2 0.00 0.00 0.00 86 1015.3
20260507070749 13 0 1.6 3.2 0.00 0.00 0.00 86 1015.4
20260507065748 13 0 1.6 3.2 0.00 0.00 0.00 86 1015.4
20260507065249 13 0 1.6 4.8 0.00 0.00 0.00 86 1015.3
20260507064250 13 0 1.6 4.8 0.00 0.00 0.00 86 1015.4
20260507063754 14 0 1.6 3.2 0.00 0.00 0.00 85 1015.4
20260507063748 14 0 1.6 4.8 0.00 0.00 0.00 85 1015.4
20260507062750 14 0 1.6 3.2 0.00 0.00 0.00 85 1015.4
20260507062250 14 0 1.6 4.8 0.00 0.00 0.00 85 1015.4
20260507061750 14 0 1.6 4.8 0.00 0.00 0.00 85 1015.3
20260507061254 14 0 1.6 4.8 0.00 0.00 0.00 85 1015.2
20260507061250 14 0 0.0 4.8 0.00 0.00 0.00 85 1015.4
20260507060251 14 0 1.6 6.4 0.00 0.00 0.00 84 1015.2
20260507055748 14 0 1.6 6.4 0.00 0.00 0.00 84 1015.3
20260507055251 14 0 1.6 4.8 0.00 0.00 0.00 84 1015.3
20260507054749 14 0 1.6 4.8 0.00 0.00 0.00 84 1015.2
20260507054247 14 0 1.6 4.8 0.00 0.00 0.00 84 1015.2
20260507053746 14 0 1.6 4.8 0.00 0.00 0.00 83 1015.2
20260507053248 15 0 1.6 3.2 0.00 0.00 0.00 82 1015.3
20260507052746 15 0 1.6 3.2 0.00 0.00 0.00 83 1015.3
20260507052247 15 0 1.6 4.8 0.00 0.00 0.00 82 1015.3
20260507051748 15 0 1.6 4.8 0.00 0.00 0.00 82 1015.2
20260507051246 15 0 0.0 3.2 0.00 0.00 0.00 82 1015.2
20260507050753 15 0 1.6 4.8 0.00 0.00 0.00 82 1015.2
20260507050748 15 0 1.6 3.2 0.00 0.00 0.00 82 1015.2
20260507045748 15 0 1.6 4.8 0.00 0.00 0.00 82 1015.0
20260507045247 15 0 1.6 3.2 0.00 0.00 0.00 83 1015.0
20260507044746 15 0 1.6 3.2 0.00 0.00 0.00 83 1015.1
20260507044246 15 0 1.6 3.2 0.00 0.00 0.00 83 1015.1
20260507043747 15 0 1.6 4.8 0.00 0.00 0.00 82 1015.0
20260507043248 15 0 1.6 4.8 0.00 0.00 0.00 82 1015.1
20260507042747 15 0 0.0 4.8 0.00 0.00 0.00 82 1014.8
20260507042244 15 0 1.6 4.8 0.00 0.00 0.00 82 1014.9
20260507041745 15 0 1.6 4.8 0.00 0.00 0.00 82 1014.8
20260507041244 15 0 1.6 3.2 0.00 0.00 0.00 82 1014.7
20260507040744 15 0 0.0 3.2 0.00 0.00 0.00 82 1014.7
20260507040244 15 0 0.0 1.6 0.00 0.00 0.00 81 1014.8
20260507035744 15 0 0.0 3.2 0.00 0.00 0.00 81 1014.6
20260507035244 15 0 0.0 3.2 0.00 0.00 0.00 81 1014.6
20260507034746 15 0 1.6 4.8 0.00 0.00 0.00 81 1014.5
20260507034243 15 0 0.0 4.8 0.00 0.00 0.00 80 1014.5
20260507033743 15 0 0.0 3.2 0.00 0.00 0.00 80 1014.4
20260507033244 16 0 0.0 3.2 0.00 0.00 0.00 79 1014.4
20260507032743 16 0 0.0 3.2 0.00 0.00 0.00 79 1014.4
20260507032242 16 0 0.0 3.2 0.00 0.00 0.00 79 1014.3
20260507031740 16 0 1.6 6.4 0.00 0.00 0.00 78 1014.2
20260507031242 16 0 1.6 6.4 0.00 0.00 0.00 78 1014.2
20260507030743 16 0 0.0 3.2 0.00 0.00 0.00 78 1014.2
20260507030243 17 0 0.0 3.2 0.00 0.00 0.00 76 1014.0
20260507030238 16 0 1.6 3.2 0.00 0.00 0.00 77 1014.1
20260507024739 17 0 0.0 1.6 0.00 0.00 0.00 75 1014.0
20260507024238 17 0 0.0 1.6 0.00 0.00 0.00 75 1014.0
20260507023741 17 0 1.6 3.2 0.00 0.00 0.00 75 1014.0
20260507023239 17 0 0.0 3.2 0.00 0.00 0.00 74 1014.0
20260507022737 17 0 1.6 4.8 0.00 0.00 0.00 74 1014.0
20260507022238 17 0 1.6 4.8 0.00 0.00 0.00 74 1014.0
20260507021736 18 0 0.0 4.8 0.00 0.00 0.00 73 1014.0
20260507021236 18 0 0.0 1.6 0.00 0.00 0.00 73 1014.0
20260507020736 18 0 0.0 1.6 0.00 0.00 0.00 72 1014.0
20260507020241 18 0 0.0 4.8 0.00 0.00 0.00 73 1014.0
20260507020236 18 0 0.0 0.0 0.00 0.00 0.00 72 1014.1
20260507014737 18 0 3.2 6.4 0.00 0.00 0.00 72 1014.2
20260507014241 18 0 1.6 6.4 0.00 0.00 0.00 71 1014.2
20260507014236 18 0 3.2 6.4 0.00 0.00 0.00 71 1014.2
20260507013234 18 0 1.6 6.4 0.00 0.00 0.00 71 1014.1
20260507012235 18 0 3.2 8.0 0.00 0.00 0.00 70 1014.2
20260507011737 18 0 3.2 4.8 0.00 0.00 0.00 67 1014.2
20260507011239 19 0 4.8 8.0 0.00 0.00 0.00 66 1014.3
20260507011235 18 0 4.8 8.0 0.00 0.00 0.00 66 1014.2
20260507010237 19 0 3.2 8.0 0.00 0.00 0.00 62 1014.3
20260507005739 20 0 3.2 6.4 0.00 0.00 0.00 60 1014.3
20260507005735 20 0 3.2 8.0 0.00 0.00 0.00 62 1014.3
20260507004732 20 0 3.2 8.0 0.00 0.00 0.00 59 1014.4
20260507004232 20 0 3.2 8.0 0.00 0.00 0.00 58 1014.4
20260507003732 20 0 3.2 6.4 0.00 0.00 0.00 60 1014.5
20260507003233 19 0 3.2 8.0 0.00 0.00 0.00 61 1014.5
20260507002733 19 0 3.2 9.7 0.00 0.00 0.00 61 1014.5
20260507002234 20 0 4.8 9.7 0.00 0.00 0.00 61 1014.6
20260507001732 20 0 3.2 8.0 0.00 0.00 0.00 59 1014.6
20260507001232 20 0 3.2 9.7 0.00 0.00 0.00 59 1014.6
20260507000734 20 0 3.2 9.7 0.00 0.00 0.00 59 1014.6
20260507000234 20 0 3.2 8.0 0.00 0.00 0.00 58 1014.6
20260506235733 20 0 3.2 6.4 0.00 0.00 0.00 60 1014.7
20260506235232 20 0 3.2 8.0 0.00 0.00 0.00 63 1014.7
20260506234731 20 0 3.2 9.7 0.00 0.00 0.00 65 1014.8
20260506234231 20 0 3.2 9.7 0.00 0.00 0.00 67 1014.8
20260506233729 20 0 3.2 6.4 0.00 0.00 0.00 69 1014.8
20260506233231 20 0 3.2 8.0 0.00 0.00 0.00 70 1014.9
20260506232733 20 0 4.8 9.7 0.00 0.00 0.00 67 1015.0
20260506232728 20 0 3.2 8.0 0.00 0.00 0.00 69 1014.9
20260506231728 20 0 4.8 12.9 0.00 0.00 0.00 66 1015.0
20260506231229 21 0 4.8 12.9 0.00 0.00 0.00 61 1015.1
20260506230731 21 0 3.2 8.0 0.00 0.00 0.00 59 1015.2
20260506230725 21 0 3.2 8.0 0.00 0.00 0.00 61 1015.1
20260506225725 21 0 3.2 9.7 0.00 0.00 0.00 57 1015.2
20260506225225 20 0 4.8 9.7 0.00 0.00 0.00 58 1015.3
20260506224725 20 0 4.8 12.9 0.00 0.00 0.00 58 1015.4
20260506224223 21 0 4.8 12.9 0.00 0.00 0.00 57 1015.5
20260506223724 21 0 3.2 9.7 0.00 0.00 0.00 59 1015.5
20260506223227 21 0 3.2 8.0 0.00 0.00 0.00 58 1015.6
20260506222725 20 0 3.2 6.4 0.00 0.00 0.00 60 1015.7
20260506222222 20 0 4.8 12.9 0.00 0.00 0.00 59 1015.7
20260506221726 20 0 4.8 14.5 0.00 0.00 0.00 61 1015.9
20260506221722 19 0 4.8 14.5 0.00 0.00 0.00 61 1016.0
20260506220721 19 0 4.8 9.7 0.00 0.00 0.00 60 1016.1
20260506220217 19 0 6.4 14.5 0.00 0.00 0.00 63 1016.2
20260506215719 18 0 6.4 14.5 0.00 0.00 0.00 62 1016.3
20260506215220 19 0 4.8 9.7 0.00 0.00 0.00 62 1016.4
20260506214718 20 0 3.2 9.7 0.00 0.00 0.00 61 1016.4
20260506214217 20 0 4.8 9.7 0.00 0.00 0.00 62 1016.5
20260506213717 19 0 4.8 12.9 0.00 0.00 0.00 64 1016.5
20260506213217 18 0 4.8 12.9 0.00 0.00 0.00 63 1016.5
20260506212717 18 0 4.8 9.7 0.00 0.00 0.00 63 1016.6
20260506212216 18 0 4.8 12.9 0.00 0.00 0.00 64 1016.6
20260506211717 19 0 4.8 12.9 0.00 0.00 0.00 64 1016.9
20260506211215 19 0 4.8 9.7 0.00 0.00 0.00 66 1016.9
20260506210714 18 0 4.8 6.4 0.00 0.00 0.00 67 1016.9
20260506210214 18 0 4.8 9.7 0.00 0.00 0.00 68 1016.9
20260506205713 18 0 4.8 9.7 0.00 0.00 0.00 67 1017.0
20260506205213 18 0 4.8 9.7 0.00 0.00 0.00 70 1017.0
20260506204712 18 0 4.8 9.7 0.00 0.00 0.00 68 1017.0
20260506204213 18 0 4.8 12.9 0.00 0.00 0.00 72 1017.0
20260506203712 18 0 4.8 12.9 0.00 0.00 0.00 71 1017.0
20260506202712 18 0 4.8 12.9 0.00 0.00 0.00 70 1017.1
20260506202212 18 0 4.8 9.7 0.00 0.00 0.00 72 1017.2
20260506201711 18 0 4.8 16.1 0.00 0.00 0.00 71 1017.2
20260506201211 18 0 4.8 16.1 0.00 0.00 0.00 70 1017.2
20260506200713 18 0 4.8 14.5 0.00 0.00 0.00 73 1017.3
20260506200217 17 0 6.4 12.9 0.00 0.00 0.00 74 1017.3
20260506200213 18 0 4.8 14.5 0.00 0.00 0.00 72 1017.3
20260506195212 18 0 6.4 12.9 0.00 0.00 0.00 72 1017.4
20260506194717 18 0 3.2 12.9 0.00 0.00 0.00 71 1017.4
20260506194713 18 0 4.8 12.9 0.00 0.00 0.00 71 1017.3
20260506193709 17 0 6.4 17.7 0.00 0.00 0.00 73 1017.4
20260506193209 17 0 6.4 17.7 0.00 0.00 0.00 71 1017.4
20260506192712 18 0 3.2 17.7 0.00 0.00 0.00 70 1017.4
20260506192211 18 0 3.2 6.4 0.00 0.00 0.00 70 1017.4
20260506191711 18 0 4.8 12.9 0.00 0.00 0.00 70 1017.4
20260506191212 17 0 4.8 16.1 0.00 0.00 0.00 70 1017.4
20260506190711 18 0 4.8 16.1 0.00 0.00 0.00 67 1017.4
20260506190210 18 0 3.2 9.7 0.00 0.00 0.00 67 1017.5
20260506185710 18 0 3.2 9.7 0.00 0.00 0.00 68 1017.6
20260506185210 18 0 4.8 12.9 0.00 0.00 0.00 69 1017.6
20260506184209 17 0 6.4 14.5 0.00 0.00 0.00 71 1017.7
20260506183710 17 0 6.4 16.1 0.00 0.00 0.00 69 1017.7
20260506183210 17 0 6.4 16.1 0.00 0.00 0.00 70 1017.8
20260506182711 17 0 4.8 14.5 0.00 0.00 0.00 71 1017.8
20260506182212 17 0 6.4 14.5 0.00 0.00 0.00 73 1017.9
20260506181710 16 0 8.0 17.7 0.00 0.00 0.00 75 1018.0
20260506181211 16 0 8.0 17.7 0.00 0.00 0.00 74 1018.0
20260506180711 17 0 6.4 16.1 0.00 0.00 0.00 73 1018.0
20260506180209 17 0 4.8 16.1 0.00 0.00 0.00 73 1017.9
20260506175716 17 0 6.4 14.5 0.00 0.00 0.00 73 1017.9
20260506175711 17 0 4.8 14.5 0.00 0.00 0.00 73 1017.9
20260506175329 16 0 6.4 14.5 0.00 0.00 0.00 73 1017.9
20260506174210 16 0 8.0 16.1 0.00 0.00 0.00 74 1017.9
20260506173710 16 0 8.0 16.1 0.00 0.00 0.00 75 1017.8
20260506173211 16 0 8.0 16.1 0.00 0.00 0.00 74 1017.7
20260506172709 16 0 6.4 17.7 0.00 0.00 0.00 74 1017.8
20260506172210 16 0 6.4 17.7 0.00 0.00 0.00 74 1017.7
20260506171710 16 0 4.8 14.5 0.00 0.00 0.00 74 1017.7
20260506171210 17 0 3.2 12.9 0.00 0.00 0.00 75 1017.8
20260506170710 17 0 4.8 12.9 0.00 0.00 0.00 75 1017.8
20260506170209 16 0 6.4 14.5 0.00 0.00 0.00 75 1017.7
20260506165710 16 0 8.0 16.1 0.00 0.00 0.00 74 1017.6
20260506165210 16 0 8.0 16.1 0.00 0.00 0.00 73 1017.7
20260506164713 17 0 4.8 9.7 0.00 0.00 0.00 72 1017.6
20260506164708 16 0 6.4 14.5 0.00 0.00 0.00 72 1017.6
20260506164325 17 0 6.4 12.9 0.00 0.00 0.00 72 1017.5
20260506163207 17 0 4.8 12.9 0.00 0.00 0.00 71 1017.5
20260506162703 17 0 4.8 12.9 0.00 0.00 0.00 70 1017.5
20260506162203 16 0 4.8 12.9 0.00 0.00 0.00 72 1017.5
20260506161705 16 0 4.8 12.9 0.00 0.00 0.00 72 1017.5
20260506161202 16 0 4.8 8.0 0.00 0.00 0.00 73 1017.5
20260506160701 16 0 4.8 8.0 0.00 0.00 0.00 73 1017.5
20260506160202 16 0 4.8 8.0 0.00 0.00 0.00 73 1017.5
20260506155659 16 0 4.8 9.7 0.00 0.00 0.00 74 1017.5
20260506155202 16 0 4.8 9.7 0.00 0.00 0.00 74 1017.5
20260506154659 16 0 4.8 8.0 0.00 0.00 0.00 74 1017.5
20260506154207 17 0 3.2 8.0 0.00 0.00 0.00 73 1017.4
20260506154202 16 0 3.2 8.0 0.00 0.00 0.00 74 1017.4
20260506153204 17 0 1.6 6.4 0.00 0.00 0.00 71 1017.4
20260506153159 17 0 3.2 6.4 0.00 0.00 0.00 73 1017.4
20260506152157 17 0 1.6 4.8 0.00 0.00 0.00 71 1017.4
20260506151659 17 0 0.0 3.2 0.00 0.00 0.00 71 1017.4
20260506151157 17 0 1.6 3.2 0.00 0.00 0.00 72 1017.3
20260506150655 17 0 0.0 3.2 0.00 0.00 0.00 72 1017.4
20260506150156 16 0 0.0 3.2 0.00 0.00 0.00 74 1017.5
20260506145655 16 0 0.0 3.2 0.00 0.00 0.00 75 1017.4
20260506145157 16 0 0.0 3.2 0.00 0.00 0.00 76 1017.4
20260506144655 15 0 0.0 3.2 0.00 0.00 0.00 77 1017.3
20260506144155 15 0 0.0 3.2 0.00 0.00 0.00 78 1017.3
20260506143656 14 0 0.0 3.2 0.00 0.00 0.00 80 1017.3
20260506143155 13 0 0.0 3.2 0.00 0.00 0.00 81 1017.3
20260506142655 13 0 0.0 3.2 0.00 0.00 0.00 82 1017.3
20260506142156 12 0 1.6 3.2 0.00 0.00 0.00 84 1017.2
20260506141653 12 0 1.6 3.2 0.00 0.00 0.00 85 1017.2
20260506141154 11 0 0.0 3.2 0.00 0.00 0.00 87 1017.2
20260506140655 11 0 0.0 1.6 0.00 0.00 0.00 88 1017.2
20260506140154 11 0 0.0 1.6 0.00 0.00 0.00 89 1017.1
20260506135655 10 0 0.0 1.6 0.00 0.00 0.00 90 1017.1
20260506135153 10 0 0.0 3.2 0.00 0.00 0.00 90 1017.0
20260506134653 10 0 0.0 3.2 0.00 0.00 0.00 90 1017.0
20260506134153 9 0 1.6 3.2 0.00 0.00 0.00 90 1016.9
20260506133700 9 0 0.0 3.2 0.00 0.00 0.00 90 1016.7
20260506133655 9 0 1.6 3.2 0.00 0.00 0.00 90 1016.9
20260506132651 9 0 0.0 3.2 0.00 0.00 0.00 90 1016.6
20260506132152 9 0 0.0 3.2 0.00 0.00 0.00 90 1016.6
20260506131651 9 0 0.0 1.6 0.00 0.00 0.00 90 1016.6
20260506131151 9 0 0.0 3.2 0.00 0.00 0.00 89 1016.6
20260506130657 9 0 1.6 3.2 0.00 0.00 0.00 90 1016.5
20260506130653 9 0 1.6 3.2 0.00 0.00 0.00 90 1016.6
20260506125651 9 0 1.6 3.2 0.00 0.00 0.00 90 1016.5
20260506125156 9 0 1.6 3.2 0.00 0.00 0.00 89 1016.3
20260506125151 9 0 1.6 3.2 0.00 0.00 0.00 90 1016.3
20260506124152 9 0 1.6 3.2 0.00 0.00 0.00 89 1016.3
20260506123649 9 0 1.6 3.2 0.00 0.00 0.00 89 1016.3
20260506123150 9 0 1.6 3.2 0.00 0.00 0.00 90 1016.3
20260506122649 9 0 1.6 3.2 0.00 0.00 0.00 89 1016.4
20260506122150 9 0 1.6 3.2 0.00 0.00 0.00 89 1016.4
20260506121647 9 0 1.6 3.2 0.00 0.00 0.00 89 1016.4
20260506121147 9 0 0.0 3.2 0.00 0.00 0.00 89 1016.2
20260506120653 9 0 0.0 3.2 0.00 0.00 0.00 88 1016.5
20260506120647 9 0 0.0 3.2 0.00 0.00 0.00 88 1016.2
20260506120306 9 0 0.0 3.2 0.00 0.00 0.00 88 1016.4
20260506115805 10 0 1.6 3.2 0.00 0.00 0.00 88 1016.3
20260506115307 10 0 1.6 3.2 0.00 0.00 0.00 88 1016.3
20260506114143 10 0 1.6 3.2 0.00 0.00 0.00 88 1016.3
20260506113642 10 0 0.0 3.2 0.00 0.00 0.00 89 1016.4
20260506113141 10 0 0.0 3.2 0.00 0.00 0.00 88 1016.4
20260506112639 10 0 0.0 3.2 0.00 0.00 0.00 88 1016.4
20260506112140 10 0 1.6 3.2 0.00 0.00 0.00 88 1016.4
20260506111638 10 0 1.6 3.2 0.00 0.00 0.00 88 1016.3
20260506111139 10 0 0.0 3.2 0.00 0.00 0.00 88 1016.2
20260506110640 10 0 0.0 3.2 0.00 0.00 0.00 88 1016.1
20260506110143 10 0 0.0 3.2 0.00 0.00 0.00 87 1016.2
20260506110138 10 0 1.6 3.2 0.00 0.00 0.00 87 1016.1
20260506105134 10 0 0.0 1.6 0.00 0.00 0.00 87 1016.2
20260506104634 10 0 0.0 3.2 0.00 0.00 0.00 87 1016.1
20260506104135 10 0 0.0 3.2 0.00 0.00 0.00 87 1016.1
20260506103635 10 0 1.6 3.2 0.00 0.00 0.00 87 1016.0
20260506103135 10 0 1.6 3.2 0.00 0.00 0.00 87 1016.1
20260506102636 10 0 0.0 3.2 0.00 0.00 0.00 87 1016.0
20260506102135 10 0 1.6 4.8 0.00 0.00 0.00 87 1015.9
20260506101637 10 0 1.6 4.8 0.00 0.00 0.00 86 1015.9
20260506101134 10 0 1.6 4.8 0.00 0.00 0.00 86 1015.9
20260506100640 11 0 1.6 4.8 0.00 0.00 0.00 86 1015.9
20260506100636 11 0 1.6 4.8 0.00 0.00 0.00 86 1015.9